Location: Pinon Hills
(34.4429°N, 117.6403°W)
Time: 09:30:47
(UTC-07:00)

Amateur Radio Satellites - All Passes

Search period start: 02 October 2014 09:00
Search period end: 03 October 2014 09:00
Location: Pinon Hills, 34.4429°N, 117.6403°W

Satellite Date Start Highest point End Downlink Frequencies (MHz)
Time Altitude Azimuth
PCSat 02 Oct 09:15:27 09:20:51 85° 296° (WNW) 09:26:18 145.825 MHz
HO-68 02 Oct 09:26:39 09:33:35 49° 101° (E) 09:40:28 435.675 MHz FM
Oscar 11 02 Oct 09:52:46 09:56:22 25° 96° (E) 09:59:55 145.825 FM, Beacon 2401.500 USB
AO-40 02 Oct 09:59:03 10:12:12 16° 213° (SSW) 10:17:51 Beacon 2401.320
FUNcube-1 02 Oct 10:20:57 10:24:25 22° 95° (E) 10:27:48 145.950 - 145.970 MHz USB
UKube-1 02 Oct 10:22:59 10:27:22 76° 102° (ESE) 10:31:43 145.840 MHz, 145.915 MHz
Sapphire 02 Oct 10:35:14 10:39:09 20° 308° (NW) 10:43:05 437.095 MHz 1200 baud AX-25 AFSK
RS-15 02 Oct 10:47:01 10:57:46 50° 53° (NE) 11:08:54 29.354 - 29.394 USB, Beacon 29.352 USB
PCSat 02 Oct 11:03:16 11:05:04 12° 313° (NW) 11:06:52 145.825 MHz
ZACube-1 02 Oct 11:05:38 11:10:10 75° 101° (ESE) 11:14:34 437.345 MHz
HO-68 02 Oct 11:15:00 11:20:54 29° 296° (WNW) 11:26:47 435.675 MHz FM
Oscar 11 02 Oct 11:29:02 11:32:23 22° 290° (WNW) 11:35:43 145.825 FM, Beacon 2401.500 USB
FUNcube-1 02 Oct 11:56:55 12:00:45 28° 289° (WNW) 12:04:31 145.950 - 145.970 MHz USB
Oscar 16 02 Oct 12:26:29 12:29:35 16° 65° (ENE) 12:32:41 437.025 USB, Beacon 2401.1428
Saudisat 1A 02 Oct 12:43:56 12:47:19 22° 111° (ESE) 12:50:42 436.775 MHz
RS-15 02 Oct 12:59:37 13:09:55 44° 252° (WSW) 13:20:41 29.354 - 29.394 USB, Beacon 29.352 USB
Oscar 19 02 Oct 13:22:00 13:27:04 56° 74° (ENE) 13:32:09 437.125 CW, 437.150 USB
JAS-1B 02 Oct 13:24:56 13:32:08 44° 72° (ENE) 13:38:15 435.800 - 435.900 CW/SSB
ITAMSAT 1 02 Oct 13:37:54 13:42:26 32° 70° (ENE) 13:47:00 435.822 SSB
Uribyol 2 02 Oct 13:38:14 13:42:53 35° 70° (ENE) 13:47:34 436.500 FM
TMSAT-1 02 Oct 13:41:39 13:43:22 12° 62° (ENE) 13:45:06 436.925 FM
Oscar 10/S400 02 Oct 13:45:22 14:06:05 34° 151° (SSE) 14:23:38 145.825 - 145.975 CW/USB, Beacon 145.810 USB
AO-Echo 02 Oct 14:00:39 14:05:17 64° 75° (ENE) 14:09:57 ?
Oscar 16 02 Oct 14:03:23 14:08:27 53° 260° (W) 14:13:32 437.025 USB, Beacon 2401.1428
AO-27 02 Oct 14:16:03 14:21:12 81° 76° (ENE) 14:26:25 436.795 MHz FM
Saudisat 1A 02 Oct 14:22:48 14:26:41 30° 306° (NW) 14:30:36 436.775 MHz
Gurwin Techsat 1B 02 Oct 14:49:41 14:54:58 80° 76° (ENE) 15:00:17 435.225 FM
Oscar 19 02 Oct 15:04:02 15:06:42 14° 267° (W) 15:09:22 437.125 CW, 437.150 USB
KITSAT 1 02 Oct 15:14:45 15:20:02 19° 102° (ESE) 15:25:20 435.175 FM
MaSat-1 02 Oct 15:15:38 15:18:47 87° 254° (WSW) 15:21:30 437.345 MHz
JAS-1B 02 Oct 15:16:12 15:22:42 28° 262° (W) 15:28:24 435.800 - 435.900 CW/SSB
TMSAT-1 02 Oct 15:17:18 15:22:34 77° 258° (WSW) 15:27:53 436.925 FM
ITAMSAT 1 02 Oct 15:17:41 15:21:53 25° 264° (W) 15:26:08 435.822 SSB
Uribyol 2 02 Oct 15:18:18 15:22:22 23° 264° (W) 15:26:28 436.500 FM
Uosat F 02 Oct 15:24:54 15:28:17 19° 66° (ENE) 15:31:40 435.120 FM
AO-7 02 Oct 15:34:39 15:42:26 47° 66° (ENE) 15:50:12 29.400 - 29.500 MHz
Hamsat 02 Oct 16:47:03 16:48:23 11° 66° (ENE) 16:49:43 145.90 MHz
Uosat F 02 Oct 17:01:58 17:06:42 43° 261° (W) 17:11:27 435.120 FM
KITSAT 1 02 Oct 17:06:28 17:14:32 75° 298° (WNW) 17:22:39 435.175 FM
OPAL 02 Oct 17:19:33 17:24:16 38° 100° (E) 17:28:53 ?
AO-7 02 Oct 17:27:57 17:35:15 34° 261° (W) 17:42:36 29.400 - 29.500 MHz
PANSAT 02 Oct 17:42:00 17:43:39 12° 158° (SSE) 17:45:18 not established
JAS-2 02 Oct 17:42:10 17:47:16 67° 74° (ENE) 17:52:37 435.800 - 435.900 CW/SSB, 435.910 FM
Sapphire 02 Oct 17:42:30 17:46:33 21° 53° (NE) 17:50:35 437.095 MHz 1200 baud AX-25 AFSK
SO-50 02 Oct 18:01:21 18:05:05 27° 111° (ESE) 18:08:53 436.795 FM
PCSat 02 Oct 18:07:16 18:12:15 36° 58° (ENE) 18:17:12 145.825 MHz
Hamsat 02 Oct 18:19:36 18:23:50 53° 260° (W) 18:28:04 145.90 MHz
STRAND 1 02 Oct 18:25:49 18:28:07 13° 92° (E) 18:30:24 ?
OPAL 02 Oct 18:59:05 19:02:51 21° 295° (WNW) 19:06:34 ?
KITSAT 1 02 Oct 19:06:30 19:11:20 17° 319° (NW) 19:16:12 435.175 FM
SO-67 02 Oct 19:17:17 19:20:43 88° 258° (WSW) 19:24:10 435.3500 MHz FM
PANSAT 02 Oct 19:19:58 19:23:17 27° 170° (S) 19:26:36 not established
Sapphire 02 Oct 19:25:00 19:30:13 49° 249° (WSW) 19:35:24 437.095 MHz 1200 baud AX-25 AFSK
JAS-2 02 Oct 19:32:29 19:32:59 10° 270° (W) 19:33:29 435.800 - 435.900 CW/SSB, 435.910 FM
SO-50 02 Oct 19:41:43 19:45:32 27° 307° (NW) 19:49:25 436.795 FM
PCSat 02 Oct 19:51:02 19:55:26 26° 253° (WSW) 19:59:50 145.825 MHz
HO-68 02 Oct 19:52:26 19:58:03 26° 63° (ENE) 20:03:40 435.675 MHz FM
AO-40 02 Oct 19:54:07 02:40:05 51° 182° (S) 05:11:23 Beacon 2401.320
ISS 02 Oct 19:58:31 20:00:09 13° 127° (SE) 20:01:47 145.800 FM
UOSAT-12 02 Oct 19:58:39 20:02:52 37° 113° (ESE) 20:07:10 437.025 FM, 437.400 FM
STRAND 1 02 Oct 20:02:33 20:07:38 60° 286° (WNW) 20:12:41 ?
Oscar 11 02 Oct 20:45:45 20:47:59 14° 67° (ENE) 20:50:14 145.825 FM, Beacon 2401.500 USB
PANSAT 02 Oct 20:59:35 21:03:05 33° 183° (S) 21:06:34 not established
UKube-1 02 Oct 21:15:02 21:19:04 40° 73° (ENE) 21:23:09 145.840 MHz, 145.915 MHz
FUNcube-1 02 Oct 21:15:20 21:17:18 13° 65° (ENE) 21:19:16 145.950 - 145.970 MHz USB
ISS 02 Oct 21:33:19 21:36:31 46° 321° (NW) 21:39:44 145.800 FM
HO-68 02 Oct 21:38:21 21:45:16 54° 258° (WSW) 21:52:16 435.675 MHz FM
UOSAT-12 02 Oct 21:39:30 21:43:06 22° 309° (NW) 21:46:45 437.025 FM, 437.400 FM
ZACube-1 02 Oct 21:58:22 22:02:34 39° 73° (ENE) 22:06:51 437.345 MHz
Oscar 11 02 Oct 22:19:36 22:23:45 44° 261° (W) 22:27:56 145.825 FM, Beacon 2401.500 USB
PANSAT 02 Oct 22:39:55 22:42:49 20° 195° (SSW) 22:45:43 not established
FUNcube-1 02 Oct 22:48:43 22:53:08 54° 260° (W) 22:57:40 145.950 - 145.970 MHz USB
Saudisat 1A 02 Oct 22:52:08 22:56:34 75° 60° (ENE) 23:00:57 436.775 MHz
UKube-1 02 Oct 22:53:08 22:55:24 14° 266° (W) 22:57:41 145.840 MHz, 145.915 MHz
ZACube-1 02 Oct 23:36:13 23:39:05 16° 267° (W) 23:41:59 437.345 MHz
KITSAT 1 03 Oct 01:04:16 01:11:12 30° 50° (NE) 01:18:04 435.175 FM
RS-15 03 Oct 01:06:30 01:16:41 43° 108° (ESE) 01:26:39 29.354 - 29.394 USB, Beacon 29.352 USB
Oscar 19 03 Oct 01:37:51 01:42:09 26° 96° (E) 01:46:23 437.125 CW, 437.150 USB
ITAMSAT 1 03 Oct 01:55:30 01:58:30 15° 93° (E) 02:01:29 435.822 SSB
Uribyol 2 03 Oct 01:55:36 01:58:52 17° 94° (E) 02:02:06 436.500 FM
AO-Echo 03 Oct 02:11:21 02:15:46 29° 97° (E) 02:20:15 ?
Oscar 16 03 Oct 02:18:39 02:23:48 74° 102° (ESE) 02:28:55 437.025 USB, Beacon 2401.1428
AO-27 03 Oct 02:32:59 02:37:51 39° 99° (E) 02:42:42 436.795 MHz FM
SO-50 03 Oct 02:37:14 02:39:23 13° 46° (NE) 02:41:32 436.795 FM
Oscar 10/S400 03 Oct 02:49:09 03:56:49 23° 249° (WSW) 06:33:06 145.825 - 145.975 CW/USB, Beacon 145.810 USB
KITSAT 1 03 Oct 02:59:06 03:06:57 58° 249° (WSW) 03:14:46 435.175 FM
JAS-1B 03 Oct 03:02:48 03:08:35 84° 285° (WNW) 03:15:04 435.800 - 435.900 CW/SSB
Gurwin Techsat 1B 03 Oct 03:09:47 03:14:49 43° 99° (E) 03:19:50 435.225 FM
Oscar 19 03 Oct 03:16:59 03:21:24 30° 290° (WNW) 03:25:48 437.125 CW, 437.150 USB
RS-15 03 Oct 03:18:16 03:28:47 48° 308° (NW) 03:39:16 29.354 - 29.394 USB, Beacon 29.352 USB
ITAMSAT 1 03 Oct 03:33:10 03:38:14 53° 287° (WNW) 03:43:18 435.822 SSB
Uribyol 2 03 Oct 03:33:31 03:38:33 49° 288° (WNW) 03:43:33 436.500 FM
TMSAT-1 03 Oct 03:36:51 03:42:06 58° 101° (E) 03:47:18 436.925 FM
AO-7 03 Oct 03:42:02 03:47:02 17° 93° (E) 03:52:01 29.400 - 29.500 MHz
AO-Echo 03 Oct 03:50:07 03:54:24 28° 290° (WNW) 03:58:46 ?
Oscar 16 03 Oct 04:00:47 04:02:28 12° 297° (WNW) 04:04:09 437.025 USB, Beacon 2401.1428
ISS 03 Oct 04:04:49 04:07:55 36° 38° (NE) 04:11:01 145.800 FM
AO-27 03 Oct 04:13:08 04:17:04 22° 293° (WNW) 04:21:00 436.795 MHz FM
SO-50 03 Oct 04:15:39 04:20:30 81° 242° (WSW) 04:25:22 436.795 FM
OPAL 03 Oct 04:30:43 04:35:41 47° 70° (ENE) 04:40:41 ?
UOSAT-12 03 Oct 04:32:41 04:35:20 15° 47° (NE) 04:37:58 437.025 FM, 437.400 FM
Gurwin Techsat 1B 03 Oct 04:50:36 04:54:26 21° 293° (WNW) 04:58:16 435.225 FM
MaSat-1 03 Oct 04:53:35 04:58:25 72° 111° (ESE) 05:03:04 437.345 MHz
JAS-2 03 Oct 04:56:02 04:59:04 13° 91° (E) 05:02:10 435.800 - 435.900 CW/SSB, 435.910 FM
Uosat F 03 Oct 05:12:55 05:17:58 78° 103° (ESE) 05:23:00 435.120 FM
TMSAT-1 03 Oct 05:18:27 05:21:28 16° 295° (WNW) 05:24:29 436.925 FM
AO-7 03 Oct 05:32:12 05:40:31 82° 289° (WNW) 05:48:49 29.400 - 29.500 MHz
STRAND 1 03 Oct 05:38:44 05:41:17 14° 64° (ENE) 05:43:51 ?
RS-15 03 Oct 05:39:23 05:44:50 15° 337° (NNW) 05:50:20 29.354 - 29.394 USB, Beacon 29.352 USB
ISS 03 Oct 05:42:11 05:44:23 17° 232° (SW) 05:46:34 145.800 FM
Hamsat 03 Oct 06:09:07 06:12:54 33° 97° (E) 06:16:39 145.90 MHz
UOSAT-12 03 Oct 06:11:15 06:15:55 63° 244° (WSW) 06:20:28 437.025 FM, 437.400 FM
OPAL 03 Oct 06:11:18 06:14:44 18° 264° (W) 06:18:11 ?
MaSat-1 03 Oct 06:33:16 06:35:11 12° 305° (NW) 06:37:05 437.345 MHz
JAS-2 03 Oct 06:37:33 06:44:32 87° 104° (ESE) 06:52:13 435.800 - 435.900 CW/SSB, 435.910 FM
Uosat F 03 Oct 06:55:01 06:56:03 11° 298° (WNW) 06:57:04 435.120 FM
STRAND 1 03 Oct 07:14:54 07:19:55 60° 259° (W) 07:24:58 ?
AO-7 03 Oct 07:27:35 07:32:03 16° 306° (NW) 07:36:31 29.400 - 29.500 MHz
Hamsat 03 Oct 07:45:56 07:48:34 16° 291° (WNW) 07:51:11 145.90 MHz
RS-15 03 Oct 08:00:10 08:04:28 13° 17° (NNE) 08:08:49 29.354 - 29.394 USB, Beacon 29.352 USB
SO-67 03 Oct 08:17:11 08:20:27 41° 285° (WNW) 08:23:42 435.3500 MHz FM
Sapphire 03 Oct 08:20:13 08:25:06 36° 109° (ESE) 08:30:00 437.095 MHz 1200 baud AX-25 AFSK
JAS-2 03 Oct 08:24:56 08:28:51 16° 297° (WNW) 08:32:58 435.800 - 435.900 CW/SSB, 435.910 FM
PCSat 03 Oct 08:44:57 08:50:18 69° 113° (ESE) 08:55:42 145.825 MHz
